Temperature
5 5 5 5 6 6 6 6 6 6 6 6 7 7 7 7 7 7 7 7 7 7 7 7 7 7 7 7 7 7 7 7 7 7 7 6 6 6
4 5 5 5 5 5 6 6 6 6 6 6 6 7 7 7 7 7 7 7 7 7 7 7 7 7 7 7 7 7 7 7 6 6 6 6 6 5
4 4 4 4 4 5 5 5 5 5 5 6 6 6 6 6 6 6 6 6 6 6 6 6 6 6 6 6 6 6 6 6 6 6 6 6 5 5
3 3 4 4 4 4 5 5 5 5 5 5 5 5 6 6 6 6 6 6 6 6 6 6 6 6 6 6 6 6 6 6 6 5 5 5 5 5
3 3 3 3 3 4 4 4 4 4 4 4 5 5 5 5 5 5 5 5 5 5 5 5 5 5 5 5 5 5 5 5 5 5 5 5 5 5
2 2 2 3 3 3 3 4 4 4 4 4 4 4 4 4 4 4 4 5 5 5 5 5 5 5 5 5 5 5 5 5 5 5 5 4 4 4
1 2 2 2 2 2 3 3 3 3 3 3 3 3 4 4 4 4 4 4 4 4 4 4 4 4 4 4 4 4 4 4 4 4 4 4 4 4
1 1 1 1 1 2 2 2 2 2 2 3 3 3 3 3 3 3 3 3 3 4 4 4 4 4 4 4 4 4 4 4 4 4 4 4 3 3
-0 0 0 1 1 1 1 1 1 2 2 2 2 2 3 3 3 3 3 3 3 3 3 3 3 3 3 3 3 3 3 3 3 3 3 3 3 3
-1 -0 -0 -0 0 0 1 1 1 1 1 1 1 2 2 2 2 2 2 2 2 2 2 2 3 3 3 3 3 3 3 3 3 3 3 3 2 2
-1 -1 -1 -1 -1 -1 -0 0 0 0 1 1 1 1 1 1 1 1 1 1 1 1 1 1 2 2 2 2 2 2 2 2 2 2 2 2 2 2
-2 -2 -2 -2 -1 -1 -1 -1 -1 -0 0 0 0 0 0 1 1 1 1 1 1 0 1 1 1 1 1 1 1 1 1 1 1 2 1 1 1 1
-3 -2 -2 -2 -2 -2 -2 -2 -1 -1 -1 -1 -0 -0 -0 -0 0 0 0 0 0 0 0 0 0 0 0 0 1 1 1 1 1 1 1 1 1 0
-4 -3 -3 -3 -3 -3 -3 -2 -2 -2 -2 -2 -1 -1 -1 -1 -0 -0 -0 -0 -0 -0 0 -0 -0 -0 -0 -0 -0 0 0 0 0 0 0 0 -0 -0
-4 -4 -4 -4 -4 -3 -3 -3 -3 -3 -3 -2 -2 -2 -2 -1 -1 -1 -1 -1 -1 -1 -1 -1 -1 -1 -1 -1 -1 -0 -0 -0 -0 -1 -1 -1 -1 -1
-5 -5 -5 -5 -4 -4 -4 -3 -3 -3 -3 -3 -3 -3 -2 -2 -2 -2 -2 -2 -2 -1 -1 -1 -1 -1 -1 -1 -1 -1 -1 -1 -1 -1 -1 -1 -1 -1
-6 -6 -5 -5 -5 -4 -4 -4 -4 -4 -4 -4 -4 -4 -3 -3 -3 -3 -3 -2 -2 -2 -2 -2 -2 -2 -2 -2 -2 -2 -2 -2 -2 -2 -2 -2 -2 -2
-6 -6 -6 -6 -6 -6 -5 -5 -5 -5 -5 -5 -5 -4 -4 -4 -4 -3 -3 -3 -3 -3 -3 -3 -3 -3 -3 -3 -3 -3 -3 -3 -3 -3 -3 -3 -3 -3
-7 -7 -7 -7 -6 -6 -6 -6 -6 -6 -6 -6 -5 -5 -5 -5 -4 -4 -4 -4 -4 -4 -4 -4 -4 -4 -4 -4 -4 -4 -4 -4 -4 -4 -4 -4 -4 -3
-8 -8 -7 -7 -7 -7 -7 -7 -7 -7 -6 -6 -6 -6 -6 -5 -5 -5 -5 -5 -5 -4 -4 -4 -4 -4 -4 -4 -4 -4 -4 -5 -5 -5 -4 -5 -4 -4
-8 -8 -8 -8 -8 -8 -8 -8 -7 -7 -7 -7 -7 -6 -6 -6 -6 -6 -5 -5 -5 -5 -5 -5 -5 -5 -5 -5 -5 -5 -5 -5 -5 -5 -5 -5 -5 -5
-9 -9 -9 -9 -9 -9 -8 -8 -8 -8 -8 -7 -7 -7 -7 -7 -6 -6 -6 -6 -6 -6 -6 -6 -6 -6 -6 -6 -6 -6 -5 -5 -5 -5 -6 -6 -6 -6
-10 -10 -9 -9 -9 -9 -9 -9 -9 -8 -8 -8 -8 -8 -7 -7 -7 -7 -7 -6 -6 -6 -6 -6 -6 -6 -6 -6 -6 -6 -6 -6 -6 -6 -6 -6 -6 -6
Wind_Speed
6 6 5 4 4 3 3 4 4 4 5 4 3 3 5 6 7 7 7 8 9 10 10 9 8 9 8 8 9 8 8 8 8 8 8 8 8 8
5 6 6 4 4 3 4 4 3 4 5 4 3 2 4 4 6 6 7 8 9 9 9 9 9 9 9 9 9 9 9 8 9 9 9 9 9 9
4 5 6 4 4 4 4 4 3 3 4 3 2 2 3 4 4 5 6 6 7 9 9 9 9 9 9 10 10 10 10 9 9 10 9 9 9 9
4 4 4 4 4 4 4 5 5 4 4 5 3 2 3 4 4 4 4 6 6 9 9 9 9 9 9 10 10 10 10 10 10 10 10 10 10 10
5 5 4 4 4 3 3 4 4 4 3 4 4 3 2 2 2 2 3 3 5 7 8 9 10 10 9 10 10 10 10 11 10 10 11 10 11 11
5 5 5 5 5 5 5 4 4 4 3 3 3 3 2 2 3 3 3 3 3 4 6 7 8 9 9 9 10 10 10 11 11 11 11 11 11 11
4 4 4 5 6 5 5 5 4 4 4 4 3 3 3 3 4 3 4 3 3 3 3 4 5 5 7 9 10 11 11 11 11 11 11 11 11 11
5 4 4 4 5 7 8 7 6 6 6 5 4 5 6 4 4 4 3 3 4 3 3 4 4 4 6 8 10 11 11 12 11 11 12 12 12 12
4 4 4 4 4 4 5 6 6 7 7 6 6 6 6 6 5 5 5 5 5 3 4 5 4 5 5 9 10 11 12 12 11 11 12 12 12 12
4 4 4 4 5 5 4 4 5 5 6 4 5 6 6 6 7 7 6 4 2 2 3 4 4 4 4 7 10 11 11 11 11 11 12 12 12 11
4 4 4 5 7 7 4 5 5 4 5 6 7 7 7 7 5 3 3 4 3 3 3 3 2 2 3 4 8 10 11 11 11 11 11 11 11 10
4 4 6 6 7 7 5 4 5 5 4 4 4 5 4 5 6 6 5 5 3 3 3 3 2 1 2 2 3 6 8 10 11 11 11 11 10 7
4 4 4 7 8 8 7 5 7 6 4 4 3 3 3 3 4 4 5 5 5 4 4 3 2 2 2 2 3 4 5 5 7 8 10 10 10 8
5 4 5 8 9 9 7 7 8 6 4 3 3 3 3 4 3 4 4 4 5 4 5 5 3 4 3 3 3 2 3 5 5 5 6 8 9 10
5 8 8 9 9 7 8 8 6 4 4 4 5 5 4 4 3 2 2 2 1 2 4 4 3 3 4 4 3 3 3 3 4 3 4 5 6 6
5 6 8 8 6 6 6 5 4 4 4 5 4 4 2 2 3 3 3 3 2 2 2 3 4 4 4 3 3 4 3 3 3 3 4 5 6 7
4 3 3 3 3 3 3 3 3 3 4 4 4 4 3 3 3 3 3 3 3 3 2 2 2 2 4 4 4 4 3 3 3 3 3 5 5 7
5 3 3 3 4 4 4 3 3 3 4 4 4 4 4 4 4 3 3 4 4 4 3 2 1 1 1 2 4 4 3 3 3 4 3 4 6 6
3 3 3 4 4 4 4 4 4 4 4 4 4 4 4 4 4 4 4 4 4 4 3 3 3 3 4 5 3 4 4 3 3 4 4 5 6 6
3 3 4 4 4 4 4 4 4 3 4 4 4 4 4 4 4 5 4 4 4 4 4 4 5 5 6 5 4 4 5 4 4 5 4 4 5 7
3 4 4 4 4 4 4 4 4 4 4 4 4 4 4 4 5 5 5 6 5 4 5 6 6 5 2 1 2 3 3 5 5 4 4 4 5 5
4 4 4 4 4 4 4 4 4 4 4 5 4 4 4 4 5 6 6 5 5 5 5 3 3 3 3 4 4 4 3 3 4 6 7 7 4 5
4 4 4 4 4 4 4 4 5 5 5 4 4 5 5 5 5 6 5 5 5 4 4 3 3 3 4 4 4 4 4 4 3 3 4 7 9 11
Wind_Direction
215 217 224 235 228 221 202 192 193 220 235 235 221 217 209 209 219 219 223 232 239 241 238 235 232 222 220 219 218 214 217 220 220 222 222 224 228 232
220 217 225 231 231 225 205 201 203 211 233 224 227 228 208 221 225 221 224 230 232 233 233 229 229 226 218 216 216 216 218 219 223 228 229 232 232 233
226 218 227 231 228 228 209 200 206 209 234 254 251 242 215 215 224 223 225 224 229 229 228 225 225 226 220 214 213 216 220 221 225 230 230 235 239 240
233 223 231 237 232 237 220 210 212 212 220 240 251 239 238 218 214 218 227 230 230 232 227 224 225 226 222 216 214 216 220 221 226 229 228 232 238 244
233 226 228 231 232 244 235 225 220 222 219 226 239 244 246 229 211 230 235 239 235 229 226 228 227 226 224 222 223 222 224 224 225 227 227 231 237 243
240 233 226 228 232 238 234 230 225 217 213 215 229 235 234 225 199 216 233 236 245 234 230 232 230 228 229 229 230 227 226 227 229 231 231 232 238 243
246 245 238 241 243 240 238 228 222 222 218 218 226 233 233 218 215 210 230 238 247 232 222 228 224 225 228 232 233 231 228 228 230 232 233 234 237 240
247 252 254 257 266 265 256 243 233 224 221 219 225 227 230 231 223 216 216 230 244 218 215 237 221 230 231 229 234 235 231 230 231 233 233 235 238 240
237 247 260 262 276 277 266 259 253 250 239 228 227 230 228 222 216 219 222 228 241 222 215 237 224 235 240 238 236 238 237 235 235 238 239 239 240 241
239 240 250 258 262 268 254 248 248 247 245 239 233 236 235 225 216 222 224 230 267 237 210 229 225 239 252 239 238 235 235 237 237 239 241 243 244 243
254 244 247 252 270 271 255 245 249 255 259 257 255 254 248 239 224 205 204 213 247 238 211 210 220 255 249 245 241 237 235 238 241 243 243 244 245 244
262 251 256 262 269 271 251 241 248 258 261 275 271 268 260 243 229 214 209 219 234 231 204 194 206 212 246 239 236 236 238 243 244 245 245 243 241 239
263 259 256 270 270 271 265 250 254 255 242 241 248 249 249 241 228 225 217 216 224 237 208 190 211 215 227 261 255 241 234 241 243 248 247 241 238 234
263 263 260 270 271 270 267 264 266 258 237 233 239 244 244 246 243 230 226 225 228 232 209 194 210 214 221 252 259 241 244 240 236 248 247 247 245 241
270 270 272 273 272 267 265 267 263 243 226 234 240 246 243 240 241 238 234 223 251 246 209 216 207 212 219 232 243 245 254 250 237 246 251 247 246 241
284 279 280 279 273 268 268 267 255 240 233 234 240 242 237 231 238 235 235 228 244 267 273 237 223 208 228 243 237 246 237 233 236 254 258 263 251 239
278 271 260 257 254 254 260 259 254 253 250 237 234 236 235 235 242 236 229 229 232 235 251 281 276 245 242 231 243 243 244 254 248 252 253 263 260 247
283 272 262 255 256 257 257 254 248 249 249 248 240 232 231 234 239 240 232 231 234 229 227 226 221 316 313 273 238 234 232 242 254 260 258 255 267 264
288 271 269 263 260 258 255 253 255 254 248 244 243 238 233 233 235 236 232 237 241 231 223 207 201 202 230 260 260 226 232 250 253 254 252 252 259 265
282 272 272 269 268 266 262 259 258 255 249 244 241 240 238 234 234 236 231 233 240 237 229 214 209 213 223 236 252 266 242 236 237 247 257 274 278 279
287 280 277 273 267 266 269 266 260 256 251 243 241 240 237 235 237 238 235 241 240 232 231 233 232 232 223 176 244 263 259 251 251 257 249 266 279 279
291 283 279 275 273 270 268 265 264 263 258 249 243 238 236 237 238 238 236 236 234 232 237 237 208 194 196 218 242 254 267 280 286 277 261 256 255 249
291 287 280 274 270 268 264 262 262 260 254 249 243 239 235 239 241 237 234 234 231 227 224 221 215 217 226 226 235 250 256 271 284 295 291 287 281 280
Height
1505 1508 1509 1511 1513 1514 1516 1517 1519 1518 1518 1519 1521 1522 1524 1525 1526 1527 1528 1529 1530 1530 1531 1532 1532 1533 1534 1534 1535 1535 1535 1536 1536 1537 1537 1537 1537 1538
1500 1502 1503 1505 1507 1509 1510 1511 1513 1514 1513 1514 1516 1517 1519 1520 1521 1522 1523 1524 1524 1525 1526 1527 1527 1528 1529 1530 1530 1530 1531 1531 1532 1533 1533 1533 1533 1533
1494 1495 1497 1499 1501 1502 1504 1505 1507 1508 1508 1509 1511 1512 1514 1514 1516 1517 1517 1518 1519 1520 1521 1521 1522 1523 1524 1525 1525 1526 1526 1527 1527 1528 1528 1528 1528 1528
1487 1489 1490 1493 1495 1496 1497 1499 1501 1502 1503 1503 1504 1506 1507 1509 1510 1511 1512 1512 1513 1514 1515 1516 1517 1518 1518 1519 1520 1521 1521 1522 1522 1523 1523 1523 1523 1524
1481 1483 1485 1487 1488 1490 1491 1493 1495 1496 1497 1499 1499 1500 1501 1503 1504 1505 1506 1507 1508 1508 1509 1510 1511 1512 1513 1513 1514 1515 1516 1516 1517 1517 1518 1518 1518 1519
1476 1477 1479 1481 1482 1484 1485 1486 1488 1490 1491 1493 1494 1494 1496 1497 1498 1499 1499 1501 1501 1503 1503 1504 1505 1506 1507 1508 1509 1509 1510 1511 1511 1512 1512 1513 1513 1513
1470 1471 1473 1475 1477 1479 1480 1480 1482 1484 1485 1486 1487 1489 1489 1490 1492 1493 1494 1494 1495 1496 1497 1498 1499 1500 1501 1502 1502 1503 1504 1505 1505 1506 1506 1507 1507 1507
1464 1466 1468 1470 1471 1473 1474 1475 1477 1478 1478 1480 1481 1482 1483 1485 1486 1487 1488 1488 1488 1491 1491 1492 1493 1493 1494 1495 1496 1497 1498 1498 1499 1499 1500 1500 1501 1501
1459 1461 1462 1464 1465 1467 1468 1470 1471 1472 1473 1474 1475 1476 1477 1479 1480 1481 1482 1482 1483 1484 1485 1485 1486 1487 1488 1489 1490 1491 1491 1492 1493 1493 1494 1494 1495 1495
1455 1456 1457 1458 1460 1461 1462 1463 1464 1465 1467 1468 1469 1470 1472 1473 1474 1475 1476 1477 1478 1479 1480 1479 1480 1481 1482 1483 1483 1484 1485 1486 1486 1487 1487 1488 1488 1488
1450 1451 1452 1453 1454 1456 1457 1457 1458 1460 1461 1462 1464 1465 1467 1468 1469 1470 1470 1471 1471 1472 1473 1474 1474 1474 1475 1476 1477 1478 1478 1479 1480 1481 1481 1481 1481 1482
1445 1446 1447 1448 1450 1450 1451 1451 1452 1453 1454 1456 1457 1459 1461 1462 1463 1464 1465 1465 1465 1466 1467 1468 1468 1469 1469 1469 1471 1472 1472 1473 1474 1474 1475 1475 1475 1475
1439 1440 1441 1443 1444 1445 1446 1446 1447 1448 1449 1450 1451 1452 1454 1455 1457 1458 1459 1459 1460 1460 1461 1462 1462 1463 1464 1463 1464 1465 1466 1466 1467 1467 1468 1468 1468 1468
1434 1435 1436 1438 1438 1439 1440 1441 1442 1443 1443 1444 1445 1446 1447 1449 1450 1451 1452 1453 1454 1455 1456 1457 1457 1457 1458 1457 1457 1458 1459 1460 1460 1461 1461 1461 1461 1461
1429 1430 1431 1431 1432 1433 1434 1435 1436 1437 1437 1438 1438 1439 1441 1442 1444 1445 1445 1446 1447 1448 1449 1450 1451 1452 1452 1452 1452 1452 1452 1453 1454 1454 1454 1454 1454 1454
1424 1424 1425 1425 1427 1427 1428 1429 1430 1430 1431 1431 1432 1434 1435 1436 1437 1438 1439 1440 1440 1441 1443 1444 1445 1446 1446 1446 1446 1446 1447 1447 1447 1447 1447 1447 1447 1447
1419 1419 1419 1420 1420 1421 1422 1422 1423 1424 1424 1425 1426 1427 1428 1430 1431 1432 1433 1434 1434 1434 1435 1437 1439 1439 1440 1440 1440 1440 1440 1440 1440 1441 1440 1440 1440 1440
1416 1414 1414 1414 1414 1415 1415 1416 1417 1417 1418 1419 1420 1421 1422 1423 1424 1426 1427 1428 1428 1428 1429 1431 1432 1433 1434 1434 1435 1434 1434 1434 1434 1435 1434 1434 1433 1433
1410 1409 1409 1409 1409 1410 1410 1410 1411 1412 1413 1414 1415 1415 1416 1417 1418 1420 1421 1421 1422 1423 1424 1425 1426 1427 1427 1426 1427 1429 1429 1428 1428 1428 1428 1428 1426 1426
1406 1405 1405 1405 1405 1405 1405 1405 1406 1407 1408 1408 1409 1410 1410 1411 1412 1413 1414 1415 1416 1417 1418 1419 1420 1421 1421 1421 1421 1422 1423 1423 1422 1422 1422 1421 1421 1420
1402 1402 1401 1401 1400 1400 1400 1400 1401 1401 1402 1403 1403 1404 1404 1405 1406 1407 1409 1410 1411 1411 1412 1413 1414 1416 1416 1417 1416 1415 1417 1418 1418 1417 1416 1415 1414 1413
1398 1397 1397 1396 1396 1395 1395 1396 1396 1396 1396 1397 1397 1398 1399 1400 1401 1402 1403 1404 1405 1406 1407 1408 1409 1410 1410 1410 1409 1409 1409 1411 1411 1411 1411 1410 1409 1406
1395 1394 1393 1392 1392 1391 1391 1391 1391 1391 1391 1391 1391 1392 1393 1394 1395 1396 1397 1398 1399 1400 1401 1402 1403 1404 1404 1404 1404 1404 1404 1404 1404 1404 1404 1404 1404 1403